Location: ????????
(60.4333°N, 46.4710°E)
Time: 04:44:09
(UTC+00:00)

DNEPR-1 R/B - Pass Details

Date: 25 November 2020
Orbit: 580 x 1342 km, 64.6° (Epoch: 19 January)

Event Time Altitude Azimuth Distance (km) Brightness Sun altitude
Rises 13:33:01 0° 230° (SW) 4,027 9.5 -10.1°
Reaches altitude 10° 13:35:57 10° 229° (SW) 2,961 8.4 -10.4°
Maximum altitude 13:42:55 79° 145° (SE) 972 4.5 -11.2°
Enters shadow 13:47:40 16° 60° (ENE) 2,098 5.6 -11.7°
